THEMIS D

Last updated on Tue Jul 01 2025 00:02:38 GMT+0000 (Coordinated Universal Time)

1 30797U 07004D 25181.44243363 -.00000448 00000+0 00000+0 0 9998 2 30797 2.0470 104.1092 8422031 168.2062 347.2013 0.87836531 37981
UTC large
Height (km)
Speed (km/s)
/
Latitude / Longitude
Inclination (degrees)
Orbital Period (minutes)
Azimuth
Elevation
Range (km)
Doppler Factor

Next 0 passes for location: London (51.5072 / 0.1276)

Sorry there are no passes over London.